Weather in Pozzallo

Italy     36°43′49″N   14°50′39″E
temp.,
°C
wind,
m/s
gust,
m/s
humid.,
%
clouds,
%
prec.,
mm/h
press.,
hPa
HPBL,
m
13 may, thu
thu1323:00+16ese35865 0.0 1014132
02:00+14nw22840 0.0 101430
05:00+13nw33830 0.0 101377
08:00+17wnw47490 0.0 1014376
11:00+21wnw911330 0.0 1014784
14:00+22w1012404 0.0 1014974
17:00+20wnw10134681 0.0 1014756
20:00+16wnw612630 0.0 1014367
14 may, fri
fri1423:00+14nw45800 0.0 1015127
02:00+15wnw511864 0.0 1014320
05:00+14wnw489324 0.0 1014271
08:00+17wnw597690 0.0 1015555
11:00+21w794798 0.0 1016771
14:00+23w7942100 0.0 1015807
17:00+22w574236 0.0 1014626
20:00+17wsw236522 0.0 101433
15 may, sat
sat1523:00+16nw226949 0.0 101429
02:00+17w2369100 0.1 101362
05:00+15wnw378263 0.0 1012170
08:00+18wnw81172100 0.0 1013711
11:00+22w81037100 0.0 10131279
14:00+22w11124293 0.0 1013898
17:00+21wnw1114438 0.0 1013635
20:00+17nnw24675 0.0 101498
16 may, sun
sun1623:00+15ene1180100 0.0 101516
02:00+15nw115762 0.0 101524
05:00+15n2232100 0.0 101425
08:00+18ssw22385 0.0 1015316
11:00+22w67365 0.0 1015628
14:00+24w9123699 0.0 1014719
17:00+22w9124465 0.0 1013503
20:00+19wnw58570 0.0 1013209
17 may, mon
mon1723:00+18wnw33541 0.0 101335
02:00+17wnw45570 0.0 101363
05:00+17wnw44590 0.0 101253
08:00+22w57450 0.0 1013268
11:00+26w67350 0.0 1013523
14:00+27wsw68340 0.0 1013592
17:00+27w57320 0.0 1012473
20:00+21wnw45490 0.0 101257